Time,TemperatureF,DewpointF,PressureIn,WindDirection,WindDirectionDegrees,WindSpeedMPH,WindSpeedGustMPH,Humidity,HourlyPrecipIn,Conditions,Clouds,dailyrainin,SoftwareType,DateUTC
2013-08-30 00:03:00,67.2,65.4,29.94,SSE,149,0.0,1.0,94,0.00,,,0.00,Wunderground v.1.15,2013-08-30 07:03:00,
2013-08-30 00:08:00,67.3,65.8,29.94,SE,145,0.0,1.0,95,0.00,,,0.00,Wunderground v.1.15,2013-08-30 07:08:00,
2013-08-30 00:14:00,67.2,65.7,29.93,SE,145,0.0,0.0,95,0.00,,,0.00,Wunderground v.1.15,2013-08-30 07:14:00,
2013-08-30 00:20:00,67.2,65.7,29.94,SE,145,0.0,0.0,95,0.00,,,0.00,Wunderground v.1.15,2013-08-30 07:20:00,
2013-08-30 00:26:00,67.1,65.6,29.93,SE,145,0.0,0.0,95,0.00,,,0.00,Wunderground v.1.15,2013-08-30 07:26:00,
2013-08-30 00:31:00,66.9,65.1,29.93,SSE,150,0.0,0.0,94,0.00,,,0.00,Wunderground v.1.15,2013-08-30 07:31:00,
2013-08-30 00:36:00,66.9,65.4,29.93,SSE,150,0.0,0.0,95,0.00,,,0.00,Wunderground v.1.15,2013-08-30 07:36:00,
2013-08-30 00:42:00,66.9,65.4,29.93,SSE,151,0.0,0.0,95,0.00,,,0.00,Wunderground v.1.15,2013-08-30 07:42:00,
2013-08-30 00:47:00,66.9,65.4,29.93,SSE,150,0.0,0.0,95,0.00,,,0.00,Wunderground v.1.15,2013-08-30 07:47:00,
2013-08-30 00:52:00,66.9,65.4,29.93,SSE,150,0.0,0.0,95,0.00,,,0.00,Wunderground v.1.15,2013-08-30 07:52:00,
2013-08-30 00:58:00,66.8,65.3,29.93,SSE,165,0.0,0.0,95,0.00,,,0.00,Wunderground v.1.15,2013-08-30 07:58:00,
2013-08-30 01:03:00,66.8,65.3,29.93,SSE,162,0.0,0.0,95,0.00,,,0.00,Wunderground v.1.15,2013-08-30 08:03:00,
2013-08-30 01:08:00,66.7,65.2,29.93,SSW,194,0.0,0.0,95,0.00,,,0.00,Wunderground v.1.15,2013-08-30 08:08:00,
2013-08-30 01:14:00,66.7,65.2,29.93,SE,143,0.0,0.0,95,0.00,,,0.00,Wunderground v.1.15,2013-08-30 08:14:00,
2013-08-30 01:19:00,66.6,65.1,29.92,SE,145,0.0,0.0,95,0.00,,,0.00,Wunderground v.1.15,2013-08-30 08:19:00,
2013-08-30 01:25:00,66.6,65.1,29.92,SE,145,0.0,0.0,95,0.00,,,0.00,Wunderground v.1.15,2013-08-30 08:25:00,
2013-08-30 01:30:00,66.5,65.0,29.92,SSE,166,0.0,0.0,95,0.00,,,0.00,Wunderground v.1.15,2013-08-30 08:30:00,
2013-08-30 01:35:00,66.5,65.0,29.92,SSE,151,0.0,0.0,95,0.00,,,0.00,Wunderground v.1.15,2013-08-30 08:35:00,
2013-08-30 01:41:00,66.5,65.0,29.92,SSE,152,0.0,0.0,95,0.00,,,0.00,Wunderground v.1.15,2013-08-30 08:41:00,
2013-08-30 01:46:00,66.5,65.0,29.92,South,170,0.0,0.0,95,0.00,,,0.00,Wunderground v.1.15,2013-08-30 08:46:00,
2013-08-30 01:51:00,66.4,64.9,29.92,South,176,0.0,0.0,95,0.00,,,0.00,Wunderground v.1.15,2013-08-30 08:51:00,
2013-08-30 01:57:00,66.4,64.9,29.92,SE,143,0.0,0.0,95,0.00,,,0.00,Wunderground v.1.15,2013-08-30 08:57:00,
2013-08-30 02:02:00,66.4,64.9,29.92,SE,142,1.0,1.0,95,0.00,,,0.00,Wunderground v.1.15,2013-08-30 09:02:00,
2013-08-30 02:07:00,66.4,64.9,29.92,SE,135,0.0,2.0,95,0.00,,,0.00,Wunderground v.1.15,2013-08-30 09:07:00,
2013-08-30 02:12:00,66.4,64.9,29.92,ESE,117,0.0,3.0,95,0.00,,,0.00,Wunderground v.1.15,2013-08-30 09:12:00,
2013-08-30 02:17:00,66.3,64.8,29.91,SE,131,0.0,3.0,95,0.00,,,0.00,Wunderground v.1.15,2013-08-30 09:17:00,
2013-08-30 02:22:00,66.2,64.7,29.91,SE,141,0.0,1.0,95,0.00,,,0.00,Wunderground v.1.15,2013-08-30 09:22:00,
2013-08-30 02:27:00,66.1,64.6,29.91,SE,146,0.0,2.0,95,0.00,,,0.00,Wunderground v.1.15,2013-08-30 09:27:00,
2013-08-30 02:32:00,66.0,64.5,29.91,SE,129,0.0,0.0,95,0.00,,,0.00,Wunderground v.1.15,2013-08-30 09:32:00,
2013-08-30 02:37:00,65.8,64.3,29.91,SE,136,2.0,4.0,95,0.00,,,0.00,Wunderground v.1.15,2013-08-30 09:37:00,
2013-08-30 02:41:00,65.8,64.3,29.91,ESE,121,1.0,2.0,95,0.00,,,0.00,Wunderground v.1.15,2013-08-30 09:41:00,
2013-08-30 02:46:00,65.7,64.2,29.92,SSE,159,2.0,3.0,95,0.00,,,0.00,Wunderground v.1.15,2013-08-30 09:46:00,
2013-08-30 02:51:00,65.7,64.2,29.92,South,173,0.0,1.0,95,0.00,,,0.00,Wunderground v.1.15,2013-08-30 09:51:00,
2013-08-30 02:56:00,65.7,64.2,29.92,SE,131,0.0,1.0,95,0.00,,,0.00,Wunderground v.1.15,2013-08-30 09:56:00,
2013-08-30 03:01:00,65.7,64.2,29.92,SE,127,0.0,0.0,95,0.00,,,0.00,Wunderground v.1.15,2013-08-30 10:01:00,
2013-08-30 03:06:00,65.7,64.2,29.92,SE,129,0.0,0.0,95,0.00,,,0.00,Wunderground v.1.15,2013-08-30 10:06:00,
2013-08-30 03:11:00,65.7,64.2,29.92,SE,124,0.0,0.0,95,0.00,,,0.00,Wunderground v.1.15,2013-08-30 10:11:00,
2013-08-30 03:16:00,65.7,64.2,29.92,SE,124,0.0,0.0,95,0.00,,,0.00,Wunderground v.1.15,2013-08-30 10:16:00,
2013-08-30 03:21:00,65.8,64.3,29.92,SE,124,0.0,0.0,95,0.00,,,0.00,Wunderground v.1.15,2013-08-30 10:21:00,
2013-08-30 03:26:00,65.8,64.3,29.92,SE,124,0.0,0.0,95,0.00,,,0.00,Wunderground v.1.15,2013-08-30 10:26:00,
2013-08-30 03:31:00,65.9,64.4,29.92,SE,124,0.0,0.0,95,0.00,,,0.00,Wunderground v.1.15,2013-08-30 10:31:00,
2013-08-30 03:36:00,65.9,64.4,29.92,SE,124,0.0,0.0,95,0.00,,,0.00,Wunderground v.1.15,2013-08-30 10:36:00,
2013-08-30 03:41:00,65.8,64.3,29.92,SE,124,0.0,0.0,95,0.00,,,0.00,Wunderground v.1.15,2013-08-30 10:41:00,
2013-08-30 03:46:00,65.8,64.3,29.92,SE,124,0.0,0.0,95,0.00,,,0.00,Wunderground v.1.15,2013-08-30 10:46:00,
2013-08-30 03:51:00,65.8,64.0,29.92,SE,124,0.0,0.0,94,0.00,,,0.00,Wunderground v.1.15,2013-08-30 10:51:00,
2013-08-30 03:56:00,65.7,63.9,29.92,SE,124,0.0,0.0,94,0.00,,,0.00,Wunderground v.1.15,2013-08-30 10:56:00,
2013-08-30 04:01:00,65.8,64.3,29.92,SE,124,0.0,0.0,95,0.00,,,0.00,Wunderground v.1.15,2013-08-30 11:01:00,
2013-08-30 04:06:00,65.8,64.0,29.92,SE,124,0.0,0.0,94,0.00,,,0.00,Wunderground v.1.15,2013-08-30 11:06:00,
2013-08-30 04:11:00,65.7,63.9,29.92,SE,124,0.0,0.0,94,0.00,,,0.00,Wunderground v.1.15,2013-08-30 11:11:00,
2013-08-30 04:16:00,65.7,64.2,29.92,SE,124,0.0,0.0,95,0.00,,,0.00,Wunderground v.1.15,2013-08-30 11:16:00,
2013-08-30 04:22:00,65.6,63.8,29.92,SE,124,0.0,0.0,94,0.00,,,0.00,Wunderground v.1.15,2013-08-30 11:22:00,
2013-08-30 04:27:00,65.4,63.6,29.92,SE,124,0.0,0.0,94,0.00,,,0.00,Wunderground v.1.15,2013-08-30 11:27:00,
2013-08-30 04:32:00,65.3,63.8,29.92,SE,124,0.0,0.0,95,0.00,,,0.00,Wunderground v.1.15,2013-08-30 11:32:00,
2013-08-30 04:37:00,65.3,63.8,29.92,SE,124,0.0,0.0,95,0.00,,,0.00,Wunderground v.1.15,2013-08-30 11:37:00,
2013-08-30 04:42:00,65.3,63.8,29.92,SE,124,0.0,0.0,95,0.00,,,0.00,Wunderground v.1.15,2013-08-30 11:42:00,
2013-08-30 04:47:00,65.2,63.7,29.92,SE,124,0.0,0.0,95,0.00,,,0.00,Wunderground v.1.15,2013-08-30 11:47:00,
2013-08-30 04:52:00,65.2,63.7,29.92,SE,124,0.0,0.0,95,0.00,,,0.00,Wunderground v.1.15,2013-08-30 11:52:00,
2013-08-30 04:57:00,65.2,63.7,29.93,ESE,110,0.0,0.0,95,0.00,,,0.00,Wunderground v.1.15,2013-08-30 11:57:00,
2013-08-30 05:02:00,65.2,63.7,29.93,ESE,110,0.0,0.0,95,0.00,,,0.00,Wunderground v.1.15,2013-08-30 12:02:00,
2013-08-30 05:07:00,65.2,63.7,29.93,ESE,109,0.0,0.0,95,0.00,,,0.00,Wunderground v.1.15,2013-08-30 12:07:00,
2013-08-30 05:12:00,65.2,63.7,29.93,East,82,0.0,0.0,95,0.00,,,0.00,Wunderground v.1.15,2013-08-30 12:12:00,
2013-08-30 05:17:00,65.3,63.8,29.93,ENE,73,0.0,0.0,95,0.00,,,0.00,Wunderground v.1.15,2013-08-30 12:17:00,
2013-08-30 05:22:00,65.3,63.8,29.93,ENE,72,0.0,0.0,95,0.00,,,0.00,Wunderground v.1.15,2013-08-30 12:22:00,
2013-08-30 05:27:00,65.3,63.8,29.93,ENE,72,0.0,0.0,95,0.00,,,0.00,Wunderground v.1.15,2013-08-30 12:27:00,
2013-08-30 05:32:00,65.4,63.9,29.93,ENE,72,0.0,0.0,95,0.00,,,0.00,Wunderground v.1.15,2013-08-30 12:32:00,
2013-08-30 05:37:00,65.4,63.9,29.93,ENE,72,0.0,0.0,95,0.00,,,0.00,Wunderground v.1.15,2013-08-30 12:37:00,
2013-08-30 05:42:00,65.5,64.0,29.93,ENE,72,0.0,0.0,95,0.00,,,0.00,Wunderground v.1.15,2013-08-30 12:42:00,
2013-08-30 05:47:00,65.5,64.0,29.93,ENE,72,0.0,0.0,95,0.00,,,0.00,Wunderground v.1.15,2013-08-30 12:47:00,
2013-08-30 05:52:00,65.5,64.0,29.93,ENE,72,0.0,0.0,95,0.00,,,0.00,Wunderground v.1.15,2013-08-30 12:52:00,
2013-08-30 05:57:00,65.5,64.0,29.93,ENE,72,0.0,0.0,95,0.00,,,0.00,Wunderground v.1.15,2013-08-30 12:57:00,
2013-08-30 06:02:00,65.6,64.1,29.94,ENE,72,0.0,0.0,95,0.00,,,0.00,Wunderground v.1.15,2013-08-30 13:02:00,
2013-08-30 06:07:00,65.6,64.1,29.94,ENE,72,0.0,0.0,95,0.00,,,0.00,Wunderground v.1.15,2013-08-30 13:07:00,
2013-08-30 06:12:00,65.6,64.1,29.94,ENE,72,0.0,0.0,95,0.00,,,0.00,Wunderground v.1.15,2013-08-30 13:12:00,
2013-08-30 06:17:00,65.6,64.1,29.94,ENE,72,0.0,0.0,95,0.00,,,0.00,Wunderground v.1.15,2013-08-30 13:17:00,
2013-08-30 06:22:00,65.6,64.1,29.94,ENE,72,0.0,0.0,95,0.00,,,0.00,Wunderground v.1.15,2013-08-30 13:22:00,
2013-08-30 06:27:00,65.7,64.2,29.94,ENE,72,0.0,0.0,95,0.00,,,0.00,Wunderground v.1.15,2013-08-30 13:27:00,
2013-08-30 06:32:00,65.8,64.3,29.94,ENE,72,0.0,0.0,95,0.00,,,0.00,Wunderground v.1.15,2013-08-30 13:32:00,
2013-08-30 06:37:00,65.9,64.4,29.94,ENE,72,0.0,0.0,95,0.00,,,0.00,Wunderground v.1.15,2013-08-30 13:37:00,
2013-08-30 06:42:00,66.0,64.5,29.95,ENE,72,0.0,0.0,95,0.00,,,0.00,Wunderground v.1.15,2013-08-30 13:42:00,
2013-08-30 06:47:00,66.1,64.6,29.95,ENE,72,0.0,0.0,95,0.00,,,0.00,Wunderground v.1.15,2013-08-30 13:47:00,
2013-08-30 06:52:00,66.2,64.7,29.94,ENE,72,0.0,0.0,95,0.00,,,0.00,Wunderground v.1.15,2013-08-30 13:52:00,
2013-08-30 06:57:00,66.4,64.9,29.94,ENE,72,0.0,0.0,95,0.00,,,0.00,Wunderground v.1.15,2013-08-30 13:57:00,
2013-08-30 07:02:00,66.6,65.1,29.94,ENE,72,0.0,0.0,95,0.00,,,0.00,Wunderground v.1.15,2013-08-30 14:02:00,
2013-08-30 07:07:00,66.7,65.2,29.94,ENE,72,0.0,0.0,95,0.00,,,0.00,Wunderground v.1.15,2013-08-30 14:07:00,
2013-08-30 07:12:00,66.9,65.1,29.94,ENE,72,0.0,0.0,94,0.00,,,0.00,Wunderground v.1.15,2013-08-30 14:12:00,
2013-08-30 07:17:00,67.3,65.5,29.94,ENE,72,0.0,0.0,94,0.00,,,0.00,Wunderground v.1.15,2013-08-30 14:17:00,
2013-08-30 07:22:00,67.5,65.7,29.95,ENE,72,0.0,0.0,94,0.00,,,0.00,Wunderground v.1.15,2013-08-30 14:22:00,
2013-08-30 07:27:00,67.8,65.7,29.95,ENE,72,0.0,0.0,93,0.00,,,0.00,Wunderground v.1.15,2013-08-30 14:27:00,
2013-08-30 07:32:00,68.0,65.3,29.95,ENE,72,0.0,0.0,91,0.00,,,0.00,Wunderground v.1.15,2013-08-30 14:32:00,
2013-08-30 07:37:00,68.3,65.3,29.95,ENE,72,0.0,0.0,90,0.00,,,0.00,Wunderground v.1.15,2013-08-30 14:37:00,
2013-08-30 07:42:00,68.6,65.2,29.95,ENE,72,0.0,0.0,89,0.00,,,0.00,Wunderground v.1.15,2013-08-30 14:42:00,
2013-08-30 07:47:00,68.8,64.8,29.95,ENE,72,0.0,0.0,87,0.00,,,0.00,Wunderground v.1.15,2013-08-30 14:47:00,
2013-08-30 07:52:00,69.1,65.1,29.95,ENE,72,0.0,0.0,87,0.00,,,0.00,Wunderground v.1.15,2013-08-30 14:52:00,
2013-08-30 07:57:00,69.3,65.3,29.95,ENE,72,0.0,0.0,87,0.00,,,0.00,Wunderground v.1.15,2013-08-30 14:57:00,
2013-08-30 08:02:00,69.6,65.2,29.95,ENE,72,0.0,0.0,86,0.00,,,0.00,Wunderground v.1.15,2013-08-30 15:02:00,
2013-08-30 08:07:00,69.7,64.6,29.95,NE,44,0.0,0.0,84,0.00,,,0.00,Wunderground v.1.15,2013-08-30 15:07:00,
2013-08-30 08:12:00,69.9,65.2,29.95,NNE,29,0.0,0.0,85,0.00,,,0.00,Wunderground v.1.15,2013-08-30 15:12:00,
2013-08-30 08:17:00,70.1,65.0,29.95,North,359,0.0,0.0,84,0.00,,,0.00,Wunderground v.1.15,2013-08-30 15:17:00,
2013-08-30 08:22:00,70.3,65.2,29.95,NNW,333,0.0,0.0,84,0.00,,,0.00,Wunderground v.1.15,2013-08-30 15:22:00,
2013-08-30 08:27:00,70.4,64.6,29.95,NW,320,0.0,0.0,82,0.00,,,0.00,Wunderground v.1.15,2013-08-30 15:27:00,
2013-08-30 08:32:00,70.6,65.2,29.95,NNW,338,0.0,0.0,83,0.00,,,0.00,Wunderground v.1.15,2013-08-30 15:32:00,
2013-08-30 08:37:00,70.9,65.5,29.95,NW,304,0.0,0.0,83,0.00,,,0.00,Wunderground v.1.15,2013-08-30 15:37:00,
2013-08-30 08:42:00,71.2,65.8,29.95,WNW,300,0.0,0.0,83,0.00,,,0.00,Wunderground v.1.15,2013-08-30 15:42:00,
2013-08-30 08:47:00,71.4,65.6,29.95,NNW,340,0.0,0.0,82,0.00,,,0.00,Wunderground v.1.15,2013-08-30 15:47:00,
2013-08-30 08:52:00,71.5,65.7,29.95,NW,307,0.0,0.0,82,0.00,,,0.00,Wunderground v.1.15,2013-08-30 15:52:00,
2013-08-30 08:57:00,71.8,65.7,29.95,NW,322,0.0,0.0,81,0.00,,,0.00,Wunderground v.1.15,2013-08-30 15:57:00,
2013-08-30 09:02:00,71.9,65.4,29.95,NNW,328,0.0,0.0,80,0.00,,,0.00,Wunderground v.1.15,2013-08-30 16:02:00,
2013-08-30 09:07:00,72.1,65.6,29.95,West,275,0.0,0.0,80,0.00,,,0.00,Wunderground v.1.15,2013-08-30 16:07:00,
2013-08-30 09:12:00,72.2,65.3,29.95,West,277,0.0,0.0,79,0.00,,,0.00,Wunderground v.1.15,2013-08-30 16:12:00,
2013-08-30 09:17:00,72.2,65.0,29.95,WNW,291,0.0,0.0,78,0.00,,,0.00,Wunderground v.1.15,2013-08-30 16:17:00,
2013-08-30 09:22:00,72.4,65.5,29.96,WSW,241,0.0,0.0,79,0.00,,,0.00,Wunderground v.1.15,2013-08-30 16:22:00,
2013-08-30 09:27:00,72.6,65.7,29.96,West,262,0.0,0.0,79,0.00,,,0.00,Wunderground v.1.15,2013-08-30 16:27:00,
2013-08-30 09:32:00,72.8,65.2,29.96,WNW,282,0.0,0.0,77,0.00,,,0.00,Wunderground v.1.15,2013-08-30 16:32:00,
2013-08-30 09:37:00,73.0,64.2,29.95,SW,217,0.0,0.0,74,0.00,,,0.00,Wunderground v.1.15,2013-08-30 16:37:00,
2013-08-30 09:42:00,73.6,65.6,29.96,SSW,194,0.0,0.0,76,0.00,,,0.00,Wunderground v.1.15,2013-08-30 16:42:00,
2013-08-30 09:47:00,74.1,66.0,29.95,SE,132,0.0,0.0,76,0.00,,,0.00,Wunderground v.1.15,2013-08-30 16:47:00,
2013-08-30 09:52:00,74.8,65.6,29.95,SSW,210,0.0,0.0,73,0.00,,,0.00,Wunderground v.1.15,2013-08-30 16:52:00,
2013-08-30 09:57:00,75.1,66.2,29.95,WNW,293,0.0,0.0,74,0.00,,,0.00,Wunderground v.1.15,2013-08-30 16:57:00,
2013-08-30 10:02:00,75.3,65.6,29.95,WNW,294,0.0,0.0,72,0.00,,,0.00,Wunderground v.1.15,2013-08-30 17:02:00,
2013-08-30 10:07:00,75.8,66.1,29.95,WSW,250,0.0,0.0,72,0.00,,,0.00,Wunderground v.1.15,2013-08-30 17:07:00,
2013-08-30 10:12:00,75.9,65.4,29.95,SSW,193,0.0,0.0,70,0.00,,,0.00,Wunderground v.1.15,2013-08-30 17:12:00,
2013-08-30 10:17:00,76.5,65.6,29.95,WSW,253,0.0,0.0,69,0.00,,,0.00,Wunderground v.1.15,2013-08-30 17:17:00,
2013-08-30 10:22:00,77.2,65.4,29.95,SSE,158,0.0,0.0,67,0.00,,,0.00,Wunderground v.1.15,2013-08-30 17:22:00,
2013-08-30 10:27:00,77.6,65.8,29.95,ESE,123,0.0,0.0,67,0.00,,,0.00,Wunderground v.1.15,2013-08-30 17:27:00,
2013-08-30 10:32:00,78.1,66.2,29.95,SSE,153,0.0,0.0,67,0.00,,,0.00,Wunderground v.1.15,2013-08-30 17:32:00,
2013-08-30 10:37:00,78.3,66.0,29.94,SSE,164,0.0,0.0,66,0.00,,,0.00,Wunderground v.1.15,2013-08-30 17:37:00,
2013-08-30 10:42:00,78.3,65.6,29.95,ESE,115,1.0,4.0,65,0.00,,,0.00,Wunderground v.1.15,2013-08-30 17:42:00,
2013-08-30 10:47:00,77.8,65.1,29.94,NE,47,0.0,4.0,65,0.00,,,0.00,Wunderground v.1.15,2013-08-30 17:47:00,
2013-08-30 10:52:00,78.3,66.0,29.94,South,183,0.0,0.0,66,0.00,,,0.00,Wunderground v.1.15,2013-08-30 17:52:00,
2013-08-30 10:57:00,78.7,64.6,29.94,South,181,0.0,4.0,62,0.00,,,0.00,Wunderground v.1.15,2013-08-30 17:57:00,
2013-08-30 11:02:00,78.6,65.4,29.94,SE,129,0.0,0.0,64,0.00,,,0.00,Wunderground v.1.15,2013-08-30 18:02:00,
2013-08-30 11:07:00,79.2,66.4,29.94,West,281,0.0,0.0,65,0.00,,,0.00,Wunderground v.1.15,2013-08-30 18:07:00,
2013-08-30 11:12:00,79.4,66.6,29.94,West,269,0.0,0.0,65,0.00,,,0.00,Wunderground v.1.15,2013-08-30 18:12:00,
2013-08-30 11:17:00,79.9,67.1,29.94,SSW,197,1.0,4.0,65,0.00,,,0.00,Wunderground v.1.15,2013-08-30 18:17:00,
2013-08-30 11:22:00,80.1,66.4,29.94,SW,236,0.0,4.0,63,0.00,,,0.00,Wunderground v.1.15,2013-08-30 18:22:00,
2013-08-30 11:27:00,80.3,65.6,29.94,East,84,2.0,5.0,61,0.00,,,0.00,Wunderground v.1.15,2013-08-30 18:27:00,
2013-08-30 11:32:00,80.1,66.4,29.93,SSW,201,0.0,1.0,63,0.00,,,0.00,Wunderground v.1.15,2013-08-30 18:32:00,
2013-08-30 11:37:00,80.8,66.6,29.93,East,84,0.0,1.0,62,0.00,,,0.00,Wunderground v.1.15,2013-08-30 18:37:00,
2013-08-30 11:42:00,81.4,66.2,29.93,SSE,149,1.0,6.0,60,0.00,,,0.00,Wunderground v.1.15,2013-08-30 18:42:00,
2013-08-30 11:47:00,80.8,65.6,29.93,ESE,114,6.0,7.0,60,0.00,,,0.00,Wunderground v.1.15,2013-08-30 18:47:00,
2013-08-30 11:52:00,80.6,65.4,29.93,SSE,155,7.0,7.0,60,0.00,,,0.00,Wunderground v.1.15,2013-08-30 18:52:00,
2013-08-30 11:57:00,80.5,65.8,29.93,South,191,7.0,9.0,61,0.00,,,0.00,Wunderground v.1.15,2013-08-30 18:57:00,
2013-08-30 12:02:00,80.8,66.6,29.93,SSE,150,7.0,10.0,62,0.00,,,0.00,Wunderground v.1.15,2013-08-30 19:02:00,
2013-08-30 12:07:00,80.3,67.5,29.92,South,176,6.0,10.0,65,0.00,,,0.00,Wunderground v.1.15,2013-08-30 19:07:00,
2013-08-30 12:12:00,80.1,67.7,29.92,SSW,194,5.0,8.0,66,0.00,,,0.00,Wunderground v.1.15,2013-08-30 19:12:00,
2013-08-30 12:17:00,79.5,67.1,29.92,ESE,115,6.0,9.0,66,0.00,,,0.00,Wunderground v.1.15,2013-08-30 19:17:00,
2013-08-30 12:22:00,79.1,66.8,29.92,South,179,10.0,10.0,66,0.00,,,0.00,Wunderground v.1.15,2013-08-30 19:22:00,
2013-08-30 12:27:00,79.0,65.8,29.92,SSE,152,8.0,10.0,64,0.00,,,0.00,Wunderground v.1.15,2013-08-30 19:27:00,
2013-08-30 12:32:00,78.8,65.6,29.92,SSE,148,5.0,9.0,64,0.00,,,0.00,Wunderground v.1.15,2013-08-30 19:32:00,
2013-08-30 12:37:00,78.3,64.7,29.92,ESE,113,5.0,10.0,63,0.00,,,0.00,Wunderground v.1.15,2013-08-30 19:37:00,
2013-08-30 12:42:00,77.8,63.7,29.92,ESE,121,5.0,9.0,62,0.00,,,0.00,Wunderground v.1.15,2013-08-30 19:42:00,
2013-08-30 12:47:00,77.4,63.4,29.92,ESE,110,6.0,10.0,62,0.00,,,0.00,Wunderground v.1.15,2013-08-30 19:47:00,
2013-08-30 12:52:00,77.1,63.1,29.92,SSE,166,5.0,8.0,62,0.00,,,0.00,Wunderground v.1.15,2013-08-30 19:52:00,
2013-08-30 12:57:00,77.5,63.9,29.92,SE,131,3.0,8.0,63,0.00,,,0.00,Wunderground v.1.15,2013-08-30 19:57:00,
2013-08-30 13:02:00,77.7,63.2,29.92,SSE,148,1.0,4.0,61,0.00,,,0.00,Wunderground v.1.15,2013-08-30 20:02:00,
2013-08-30 13:07:00,77.9,64.3,29.91,ESE,110,3.0,5.0,63,0.00,,,0.00,Wunderground v.1.15,2013-08-30 20:07:00,
2013-08-30 13:12:00,78.0,63.5,29.91,East,79,0.0,3.0,61,0.00,,,0.00,Wunderground v.1.15,2013-08-30 20:12:00,
2013-08-30 13:17:00,78.1,63.1,29.91,East,94,2.0,6.0,60,0.00,,,0.00,Wunderground v.1.15,2013-08-30 20:17:00,
2013-08-30 13:22:00,78.7,64.6,29.91,SSE,152,2.0,4.0,62,0.00,,,0.00,Wunderground v.1.15,2013-08-30 20:22:00,
2013-08-30 13:27:00,79.0,63.9,29.91,SE,142,0.0,4.0,60,0.00,,,0.00,Wunderground v.1.15,2013-08-30 20:27:00,
2013-08-30 13:32:00,79.7,64.1,29.91,ESE,102,0.0,2.0,59,0.00,,,0.00,Wunderground v.1.15,2013-08-30 20:32:00,
2013-08-30 13:37:00,80.2,63.6,29.90,SW,235,4.0,5.0,57,0.00,,,0.00,Wunderground v.1.15,2013-08-30 20:37:00,
2013-08-30 13:42:00,80.5,63.4,29.90,ESE,121,0.0,1.0,56,0.00,,,0.00,Wunderground v.1.15,2013-08-30 20:42:00,
2013-08-30 13:47:00,80.7,63.0,29.90,East,101,0.0,1.0,55,0.00,,,0.00,Wunderground v.1.15,2013-08-30 20:47:00,
2013-08-30 13:52:00,80.7,63.0,29.89,West,259,0.0,0.0,55,0.00,,,0.00,Wunderground v.1.15,2013-08-30 20:52:00,
2013-08-30 13:57:00,81.2,64.0,29.89,East,89,0.0,0.0,56,0.00,,,0.00,Wunderground v.1.15,2013-08-30 20:57:00,
2013-08-30 14:02:00,81.8,63.5,29.89,SSW,206,0.0,0.0,54,0.00,,,0.00,Wunderground v.1.15,2013-08-30 21:02:00,
2013-08-30 14:07:00,82.1,63.3,29.89,South,191,0.0,3.0,53,0.00,,,0.00,Wunderground v.1.15,2013-08-30 21:07:00,
2013-08-30 14:12:00,82.5,64.2,29.89,NW,323,0.0,6.0,54,0.00,,,0.00,Wunderground v.1.15,2013-08-30 21:12:00,
2013-08-30 14:17:00,82.5,64.7,29.88,NE,37,0.0,6.0,55,0.00,,,0.00,Wunderground v.1.15,2013-08-30 21:17:00,
2013-08-30 14:22:00,82.2,64.4,29.88,NE,42,0.0,3.0,55,0.00,,,0.00,Wunderground v.1.15,2013-08-30 21:22:00,
2013-08-30 14:27:00,82.4,63.0,29.88,NW,313,0.0,3.0,52,0.00,,,0.00,Wunderground v.1.15,2013-08-30 21:27:00,
2013-08-30 14:32:00,82.2,61.1,29.88,WNW,298,0.0,5.0,49,0.00,,,0.00,Wunderground v.1.15,2013-08-30 21:32:00,
2013-08-30 14:37:00,82.1,61.0,29.88,WNW,283,1.0,5.0,49,0.00,,,0.00,Wunderground v.1.15,2013-08-30 21:37:00,
2013-08-30 14:42:00,82.2,61.1,29.87,South,187,0.0,2.0,49,0.00,,,0.00,Wunderground v.1.15,2013-08-30 21:42:00,
2013-08-30 14:47:00,82.7,62.2,29.87,WNW,295,5.0,8.0,50,0.00,,,0.00,Wunderground v.1.15,2013-08-30 21:47:00,
2013-08-30 14:52:00,82.7,61.6,29.87,WNW,284,0.0,4.0,49,0.00,,,0.00,Wunderground v.1.15,2013-08-30 21:52:00,
2013-08-30 14:57:00,83.0,61.3,29.86,West,269,7.0,8.0,48,0.00,,,0.00,Wunderground v.1.15,2013-08-30 21:57:00,
2013-08-30 15:02:00,82.8,62.3,29.86,SW,224,5.0,5.0,50,0.00,,,0.00,Wunderground v.1.15,2013-08-30 22:02:00,
2013-08-30 15:07:00,82.6,61.5,29.86,NW,309,3.0,7.0,49,0.00,,,0.00,Wunderground v.1.15,2013-08-30 22:07:00,
2013-08-30 15:12:00,82.5,63.1,29.86,NW,316,9.0,9.0,52,0.00,,,0.00,Wunderground v.1.15,2013-08-30 22:12:00,
2013-08-30 15:17:00,82.7,63.3,29.86,WNW,298,4.0,9.0,52,0.00,,,0.00,Wunderground v.1.15,2013-08-30 22:17:00,
2013-08-30 15:22:00,81.5,62.2,29.86,WNW,297,6.0,7.0,52,0.00,,,0.00,Wunderground v.1.15,2013-08-30 22:22:00,
2013-08-30 15:27:00,80.9,62.7,29.86,NW,304,4.0,8.0,54,0.00,,,0.00,Wunderground v.1.15,2013-08-30 22:27:00,
2013-08-30 15:32:00,80.5,62.8,29.86,WNW,283,4.0,8.0,55,0.00,,,0.00,Wunderground v.1.15,2013-08-30 22:32:00,
2013-08-30 15:37:00,80.4,62.2,29.85,WNW,292,7.0,9.0,54,0.00,,,0.00,Wunderground v.1.15,2013-08-30 22:37:00,
2013-08-30 15:42:00,80.2,60.4,29.85,NW,304,7.0,9.0,51,0.00,,,0.00,Wunderground v.1.15,2013-08-30 22:42:00,
2013-08-30 15:47:00,79.9,60.2,29.85,West,278,5.0,9.0,51,0.00,,,0.00,Wunderground v.1.15,2013-08-30 22:47:00,
2013-08-30 15:52:00,79.6,60.4,29.85,WNW,303,6.0,8.0,52,0.00,,,0.00,Wunderground v.1.15,2013-08-30 22:52:00,
2013-08-30 15:57:00,79.4,59.7,29.85,NW,323,4.0,8.0,51,0.00,,,0.00,Wunderground v.1.15,2013-08-30 22:57:00,
2013-08-30 16:02:00,79.2,60.1,29.85,WNW,287,5.0,7.0,52,0.00,,,0.00,Wunderground v.1.15,2013-08-30 23:02:00,
2013-08-30 16:07:00,79.1,61.0,29.85,WNW,298,5.0,7.0,54,0.00,,,0.00,Wunderground v.1.15,2013-08-30 23:07:00,
2013-08-30 16:12:00,78.9,60.3,29.85,West,268,2.0,5.0,53,0.00,,,0.00,Wunderground v.1.15,2013-08-30 23:12:00,
2013-08-30 16:17:00,78.8,60.7,29.86,NW,307,3.0,6.0,54,0.00,,,0.00,Wunderground v.1.15,2013-08-30 23:17:00,
2013-08-30 16:22:00,78.8,61.3,29.85,WNW,293,2.0,7.0,55,0.00,,,0.00,Wunderground v.1.15,2013-08-30 23:22:00,
2013-08-30 16:27:00,78.7,61.7,29.85,WNW,298,5.0,7.0,56,0.00,,,0.00,Wunderground v.1.15,2013-08-30 23:27:00,
2013-08-30 16:32:00,78.7,61.7,29.85,NW,304,2.0,8.0,56,0.00,,,0.00,Wunderground v.1.15,2013-08-30 23:32:00,
2013-08-30 16:37:00,78.7,61.7,29.85,NW,314,4.0,8.0,56,0.00,,,0.00,Wunderground v.1.15,2013-08-30 23:37:00,
2013-08-30 16:42:00,78.6,61.6,29.85,WNW,285,4.0,9.0,56,0.00,,,0.00,Wunderground v.1.15,2013-08-30 23:42:00,
2013-08-30 16:47:00,78.4,61.9,29.84,NW,316,4.0,9.0,57,0.00,,,0.00,Wunderground v.1.15,2013-08-30 23:47:00,
2013-08-30 16:52:00,78.2,62.2,29.84,NW,309,3.0,8.0,58,0.00,,,0.00,Wunderground v.1.15,2013-08-30 23:52:00,
2013-08-30 16:57:00,78.0,62.0,29.84,NW,309,6.0,10.0,58,0.00,,,0.00,Wunderground v.1.15,2013-08-30 23:57:00,
2013-08-30 17:02:00,77.9,61.9,29.84,NW,312,7.0,8.0,58,0.00,,,0.00,Wunderground v.1.15,2013-08-31 00:02:00,
2013-08-30 17:07:00,77.8,62.3,29.84,NW,307,3.0,8.0,59,0.00,,,0.00,Wunderground v.1.15,2013-08-31 00:07:00,
2013-08-30 17:12:00,77.7,62.2,29.83,WNW,298,4.0,6.0,59,0.00,,,0.00,Wunderground v.1.15,2013-08-31 00:12:00,
2013-08-30 17:17:00,77.5,62.5,29.83,WNW,289,4.0,6.0,60,0.00,,,0.00,Wunderground v.1.15,2013-08-31 00:17:00,
2013-08-30 17:22:00,77.3,62.8,29.83,NW,314,4.0,5.0,61,0.00,,,0.00,Wunderground v.1.15,2013-08-31 00:22:00,
2013-08-30 17:27:00,77.1,62.6,29.84,NNW,328,2.0,7.0,61,0.00,,,0.00,Wunderground v.1.15,2013-08-31 00:27:00,
2013-08-30 17:32:00,76.9,62.9,29.84,NW,326,3.0,3.0,62,0.00,,,0.00,Wunderground v.1.15,2013-08-31 00:32:00,
2013-08-30 17:37:00,76.7,63.2,29.84,NW,321,2.0,4.0,63,0.00,,,0.00,Wunderground v.1.15,2013-08-31 00:37:00,
2013-08-30 17:42:00,76.4,63.3,29.84,NW,314,4.0,6.0,64,0.00,,,0.00,Wunderground v.1.15,2013-08-31 00:42:00,
2013-08-30 17:47:00,76.2,63.6,29.84,NW,318,1.0,6.0,65,0.00,,,0.00,Wunderground v.1.15,2013-08-31 00:47:00,
2013-08-30 17:52:00,75.9,63.3,29.85,WNW,291,0.0,3.0,65,0.00,,,0.00,Wunderground v.1.15,2013-08-31 00:52:00,
2013-08-30 17:57:00,75.7,63.5,29.85,WNW,300,0.0,3.0,66,0.00,,,0.00,Wunderground v.1.15,2013-08-31 00:57:00,
2013-08-30 18:02:00,75.4,63.7,29.84,WNW,288,2.0,5.0,67,0.00,,,0.00,Wunderground v.1.15,2013-08-31 01:02:00,
2013-08-30 18:07:00,75.1,63.8,29.84,WNW,289,3.0,6.0,68,0.00,,,0.00,Wunderground v.1.15,2013-08-31 01:07:00,
2013-08-30 18:12:00,74.7,63.9,29.84,NW,307,5.0,5.0,69,0.00,,,0.00,Wunderground v.1.15,2013-08-31 01:12:00,
2013-08-30 18:17:00,74.4,64.0,29.84,NW,317,5.0,6.0,70,0.00,,,0.00,Wunderground v.1.15,2013-08-31 01:17:00,
2013-08-30 18:22:00,74.1,63.7,29.84,NW,326,5.0,6.0,70,0.00,,,0.00,Wunderground v.1.15,2013-08-31 01:22:00,
2013-08-30 18:27:00,73.8,63.4,29.84,NNW,328,1.0,6.0,70,0.00,,,0.00,Wunderground v.1.15,2013-08-31 01:27:00,
2013-08-30 18:32:00,73.6,63.2,29.84,NW,315,2.0,4.0,70,0.00,,,0.00,Wunderground v.1.15,2013-08-31 01:32:00,
2013-08-30 18:37:00,73.3,62.5,29.85,North,3,0.0,4.0,69,0.00,,,0.00,Wunderground v.1.15,2013-08-31 01:37:00,
2013-08-30 18:42:00,73.0,63.0,29.85,NNW,340,0.0,1.0,71,0.00,,,0.00,Wunderground v.1.15,2013-08-31 01:42:00,
2013-08-30 18:47:00,72.7,62.8,29.85,NNW,328,0.0,1.0,71,0.00,,,0.00,Wunderground v.1.15,2013-08-31 01:47:00,
2013-08-30 18:52:00,72.4,62.5,29.84,NNW,331,2.0,3.0,71,0.00,,,0.00,Wunderground v.1.15,2013-08-31 01:52:00,
2013-08-30 18:57:00,72.2,62.7,29.85,NW,326,0.0,3.0,72,0.00,,,0.00,Wunderground v.1.15,2013-08-31 01:57:00,
2013-08-30 19:02:00,71.9,62.8,29.85,NW,326,0.0,1.0,73,0.00,,,0.00,Wunderground v.1.15,2013-08-31 02:02:00,
2013-08-30 19:07:00,71.7,63.0,29.85,NNW,328,0.0,1.0,74,0.00,,,0.00,Wunderground v.1.15,2013-08-31 02:07:00,
2013-08-30 19:12:00,71.5,62.8,29.85,NNW,328,0.0,0.0,74,0.00,,,0.00,Wunderground v.1.15,2013-08-31 02:12:00,
2013-08-30 19:17:00,71.3,62.6,29.86,North,351,0.0,0.0,74,0.00,,,0.00,Wunderground v.1.15,2013-08-31 02:17:00,
2013-08-30 19:22:00,71.1,62.8,29.86,North,351,0.0,0.0,75,0.00,,,0.00,Wunderground v.1.15,2013-08-31 02:22:00,
2013-08-30 19:27:00,71.1,62.8,29.86,North,4,0.0,0.0,75,0.00,,,0.00,Wunderground v.1.15,2013-08-31 02:27:00,
2013-08-30 19:32:00,70.7,63.1,29.86,NE,41,0.0,0.0,77,0.00,,,0.00,Wunderground v.1.15,2013-08-31 02:32:00,
2013-08-30 19:37:00,70.5,62.9,29.87,NE,41,0.0,0.0,77,0.00,,,0.00,Wunderground v.1.15,2013-08-31 02:37:00,
2013-08-30 19:42:00,70.5,62.9,29.87,North,352,0.0,0.0,77,0.00,,,0.00,Wunderground v.1.15,2013-08-31 02:42:00,
2013-08-30 19:47:00,70.3,62.7,29.87,North,353,0.0,0.0,77,0.00,,,0.00,Wunderground v.1.15,2013-08-31 02:47:00,
2013-08-30 19:52:00,70.1,62.9,29.87,North,355,0.0,0.0,78,0.00,,,0.00,Wunderground v.1.15,2013-08-31 02:52:00,
2013-08-30 19:57:00,70.0,63.2,29.88,North,355,0.0,0.0,79,0.00,,,0.00,Wunderground v.1.15,2013-08-31 02:57:00,
2013-08-30 20:02:00,69.7,63.3,29.88,North,356,0.0,0.0,80,0.00,,,0.00,Wunderground v.1.15,2013-08-31 03:02:00,
2013-08-30 20:07:00,69.4,63.3,29.88,North,358,0.0,0.0,81,0.00,,,0.00,Wunderground v.1.15,2013-08-31 03:07:00,
2013-08-30 20:12:00,69.2,63.1,29.88,NNE,19,0.0,0.0,81,0.00,,,0.00,Wunderground v.1.15,2013-08-31 03:12:00,
2013-08-30 20:17:00,69.2,62.8,29.88,NNE,22,0.0,0.0,80,0.00,,,0.00,Wunderground v.1.15,2013-08-31 03:17:00,
2013-08-30 20:22:00,69.3,62.9,29.88,NNE,22,0.0,0.0,80,0.00,,,0.00,Wunderground v.1.15,2013-08-31 03:22:00,
2013-08-30 20:27:00,69.2,62.8,29.88,NNE,22,0.0,0.0,80,0.00,,,0.00,Wunderground v.1.15,2013-08-31 03:27:00,
2013-08-30 20:32:00,68.9,62.8,29.88,NNE,20,0.0,0.0,81,0.00,,,0.00,Wunderground v.1.15,2013-08-31 03:32:00,
2013-08-30 20:37:00,68.7,62.6,29.88,North,358,0.0,0.0,81,0.00,,,0.00,Wunderground v.1.15,2013-08-31 03:37:00,
2013-08-30 20:42:00,68.5,62.4,29.88,North,354,0.0,0.0,81,0.00,,,0.00,Wunderground v.1.15,2013-08-31 03:42:00,
2013-08-30 20:47:00,68.4,62.3,29.89,NNE,13,0.0,0.0,81,0.00,,,0.00,Wunderground v.1.15,2013-08-31 03:47:00,
2013-08-30 20:52:00,68.4,62.7,29.89,NNE,16,1.0,2.0,82,0.00,,,0.00,Wunderground v.1.15,2013-08-31 03:52:00,
2013-08-30 20:57:00,68.3,62.6,29.88,NNE,18,0.0,2.0,82,0.00,,,0.00,Wunderground v.1.15,2013-08-31 03:57:00,
2013-08-30 21:01:00,68.2,62.5,29.88,NNE,23,0.0,2.0,82,0.00,,,0.00,Wunderground v.1.15,2013-08-31 04:01:00,
2013-08-30 21:04:00,68.2,62.5,29.88,NNE,17,1.0,2.0,82,0.00,,,0.00,Wunderground v.1.15,2013-08-31 04:04:00,
2013-08-30 21:09:00,68.1,62.4,29.88,NNE,20,0.0,2.0,82,0.00,,,0.00,Wunderground v.1.15,2013-08-31 04:09:00,
2013-08-30 21:14:00,68.0,62.3,29.88,NNE,25,0.0,1.0,82,0.00,,,0.00,Wunderground v.1.15,2013-08-31 04:14:00,
2013-08-30 21:19:00,67.9,62.2,29.88,North,3,0.0,1.0,82,0.00,,,0.00,Wunderground v.1.15,2013-08-31 04:19:00,
2013-08-30 21:24:00,67.7,62.0,29.88,NNE,22,0.0,3.0,82,0.00,,,0.00,Wunderground v.1.15,2013-08-31 04:24:00,
2013-08-30 21:29:00,67.8,62.1,29.88,NNE,28,0.0,3.0,82,0.00,,,0.00,Wunderground v.1.15,2013-08-31 04:29:00,
2013-08-30 21:34:00,67.9,62.2,29.89,NNE,29,0.0,0.0,82,0.00,,,0.00,Wunderground v.1.15,2013-08-31 04:34:00,
2013-08-30 21:39:00,67.7,62.0,29.89,NNE,28,0.0,0.0,82,0.00,,,0.00,Wunderground v.1.15,2013-08-31 04:39:00,
2013-08-30 21:44:00,67.5,62.2,29.89,NNE,29,0.0,0.0,83,0.00,,,0.00,Wunderground v.1.15,2013-08-31 04:44:00,
2013-08-30 21:49:00,67.3,62.0,29.89,NNE,32,0.0,0.0,83,0.00,,,0.00,Wunderground v.1.15,2013-08-31 04:49:00,
2013-08-30 21:54:00,67.1,62.1,29.88,NNE,33,0.0,0.0,84,0.00,,,0.00,Wunderground v.1.15,2013-08-31 04:54:00,
2013-08-30 21:59:00,66.9,61.9,29.88,NE,38,0.0,0.0,84,0.00,,,0.00,Wunderground v.1.15,2013-08-31 04:59:00,
2013-08-30 22:04:00,66.7,61.7,29.88,NE,38,0.0,0.0,84,0.00,,,0.00,Wunderground v.1.15,2013-08-31 05:04:00,
2013-08-30 22:09:00,66.6,61.6,29.88,NE,39,0.0,0.0,84,0.00,,,0.00,Wunderground v.1.15,2013-08-31 05:09:00,
2013-08-30 22:14:00,66.5,61.5,29.88,NE,39,0.0,0.0,84,0.00,,,0.00,Wunderground v.1.15,2013-08-31 05:14:00,
2013-08-30 22:19:00,66.3,61.3,29.88,NE,38,0.0,0.0,84,0.00,,,0.00,Wunderground v.1.15,2013-08-31 05:19:00,
2013-08-30 22:24:00,66.0,61.4,29.88,NE,54,0.0,0.0,85,0.00,,,0.00,Wunderground v.1.15,2013-08-31 05:24:00,
2013-08-30 22:29:00,65.8,61.2,29.88,NE,53,0.0,0.0,85,0.00,,,0.00,Wunderground v.1.15,2013-08-31 05:29:00,
2013-08-30 22:34:00,65.7,61.4,29.88,NE,53,0.0,0.0,86,0.00,,,0.00,Wunderground v.1.15,2013-08-31 05:34:00,
2013-08-30 22:39:00,65.5,61.2,29.88,NE,53,0.0,0.0,86,0.00,,,0.00,Wunderground v.1.15,2013-08-31 05:39:00,
2013-08-30 22:44:00,65.7,61.4,29.88,NE,54,0.0,0.0,86,0.00,,,0.00,Wunderground v.1.15,2013-08-31 05:44:00,
2013-08-30 22:49:00,65.7,61.4,29.88,NE,54,0.0,0.0,86,0.00,,,0.00,Wunderground v.1.15,2013-08-31 05:49:00,
2013-08-30 22:54:00,65.6,61.3,29.88,NE,53,0.0,0.0,86,0.00,,,0.00,Wunderground v.1.15,2013-08-31 05:54:00,
2013-08-30 22:59:00,65.2,61.2,29.88,NE,53,0.0,0.0,87,0.00,,,0.00,Wunderground v.1.15,2013-08-31 05:59:00,
2013-08-30 23:04:00,64.9,60.9,29.88,NE,54,0.0,0.0,87,0.00,,,0.00,Wunderground v.1.15,2013-08-31 06:04:00,
2013-08-30 23:09:00,64.6,60.6,29.88,NE,53,0.0,0.0,87,0.00,,,0.00,Wunderground v.1.15,2013-08-31 06:09:00,
2013-08-30 23:14:00,64.5,60.5,29.88,NE,53,0.0,0.0,87,0.00,,,0.00,Wunderground v.1.15,2013-08-31 06:14:00,
2013-08-30 23:19:00,64.6,60.3,29.88,NE,49,0.0,0.0,86,0.00,,,0.00,Wunderground v.1.15,2013-08-31 06:19:00,
2013-08-30 23:24:00,65.2,60.6,29.87,NE,47,0.0,0.0,85,0.00,,,0.00,Wunderground v.1.15,2013-08-31 06:24:00,
2013-08-30 23:29:00,65.9,60.6,29.87,NE,47,0.0,0.0,83,0.00,,,0.00,Wunderground v.1.15,2013-08-31 06:29:00,
2013-08-30 23:34:00,66.2,60.5,29.87,NE,47,0.0,0.0,82,0.00,,,0.00,Wunderground v.1.15,2013-08-31 06:34:00,
2013-08-30 23:39:00,66.2,60.5,29.87,NE,47,0.0,0.0,82,0.00,,,0.00,Wunderground v.1.15,2013-08-31 06:39:00,
2013-08-30 23:44:00,66.0,60.3,29.87,NE,46,0.0,0.0,82,0.00,,,0.00,Wunderground v.1.15,2013-08-31 06:44:00,
2013-08-30 23:49:00,66.0,60.3,29.88,North,359,0.0,0.0,82,0.00,,,0.00,Wunderground v.1.15,2013-08-31 06:49:00,
2013-08-30 23:54:00,66.2,60.5,29.88,North,359,0.0,0.0,82,0.00,,,0.00,Wunderground v.1.15,2013-08-31 06:54:00,
2013-08-30 23:59:00,66.3,60.3,29.87,North,359,0.0,0.0,81,0.00,,,0.00,Wunderground v.1.15,2013-08-31 06:59:00,